This demonstration page uses our WeatherBlox Daily Observations layout. Learn more.

36.17497, -115.13722

Hourly Observations for June 6, 2015

Temp ( °F °C ) Dew Point ( °F °C ) Humidity (%) Winds ( mph kmh ) Pressure ( in mb ) Visibility ( mi km ) Precip ( " mm )
12:53 am 00:53 Clear 73 22.8 14 -10 10 10 Calm 29.76 1008 10 16.0934 0 0
1:53 am 01:53 Clear 70 21.1 11 -11.7 10 10 E 5 7 29.77 1008 10 16.0934 0 0
2:53 am 02:53 Clear 72 22.2 9 -12.8 8 8 ENE 10 17 29.78 1009 10 16.0934 0 0
3:53 am 03:53 Clear 71 21.7 10 -12.2 9 9 SE 6 9 29.79 1009 10 16.0934 0 0
4:53 am 04:53 Clear 72 22.2 37 2.8 28 28 E 12 19 29.8 1009 10 16.0934 0 0
5:53 am 05:53 Sunny 70 21.1 37 2.8 30 30 ESE 3 6 29.82 1010 10 16.0934 0 0
6:53 am 06:53 Sunny 72 22.2 36 2.2 27 27 WSW 5 7 29.83 1010 10 16.0934 0 0
7:53 am 07:53 Sunny 75 23.9 39 3.9 27 27 S 6 9 29.84 1011 10 16.0934 0 0
8:53 am 08:53 Sunny 79 26.1 33 0.6 19 19 E 8 13 29.84 1011 10 16.0934 0 0
9:53 am 09:53 Sunny 79 26.1 32 0 18 18 Calm 29.83 1010 10 16.0934 0 0
10:53 am 10:53 Sunny 82 27.8 30 -1.1 15 15 Calm 29.83 1010 10 16.0934 0 0
11:53 am 11:53 Sunny 83 28.3 26 -3.3 12 12 S 7 11 29.82 1010 10 16.0934 0 0
12:53 pm 12:53 Sunny 85 29.4 15 -9.4 7 7 VRB 7 11 29.82 1010 10 16.0934 0 0
1:53 pm 13:53 Sunny 86 30 14 -10 7 7 undefined N/A 29.81 1010 10 16.0934 0 0
2:53 pm 14:53 Sunny 87 30.6 14 -10 6 6 N 7 11 29.8 1009 10 16.0934 0 0
3:53 pm 15:53 Sunny 87 30.6 15 -9.4 7 7 VRB 3 6 29.78 1009 10 16.0934 0 0
4:53 pm 16:53 Sunny 89 31.7 15 -9.4 6 6 NNE 5 7 29.77 1008 10 16.0934 0 0
5:53 pm 17:53 Sunny 87 30.6 16 -8.9 7 7 Calm 29.76 1008 10 16.0934 0 0
6:53 pm 18:53 Sunny 87 30.6 16 -8.9 7 7 NW 5 7 29.77 1008 10 16.0934 0 0
7:53 pm 19:53 Sunny 86 30 18 -7.8 8 8 NNW 5 7 29.78 1008 10 16.0934 0 0
8:53 pm 20:53 Clear 83 28.3 29 -1.7 14 14 NW 12 19 29.79 1009 10 16.0934 0 0
9:53 pm 21:53 Clear 82 27.8 31 -0.6 16 16 NNW 17 28 29.82 1010 10 16.0934 0 0
10:53 pm 22:53 Clear 81 27.2 32 0 17 17 N 6 9 29.83 1010 10 16.0934 0 0
11:53 pm 23:53 Clear 78 25.6 31 -0.6 18 18 E 5 7 29.84 1010 10 16.0934 0 0

Powered by AerisWeather